FENGYUN 3G

Last updated on Fri Sep 11 2026 00:02:39 GMT+0000 (Coordinated Universal Time)

1 56232U 23055A 26253.54947564 .00018054 00000+0 28514-3 0 9995 2 56232 49.9910 265.8882 0012024 13.3274 346.8009 15.53441747193273
UTC large
Height (km)
Speed (km/s)
/
Latitude / Longitude
Inclination (degrees)
Orbital Period (minutes)
Azimuth
Elevation
Range (km)
Doppler Factor

Next 0 passes for location: London (51.5072 / 0.1276)

No passes found over London.
FENGYUN 3G